| time (UTC) | temp F | wind direction | speed knots | gust knots | rain 1hr in | rain 24hr in | rain mn in | humidity % | barometer mb |
| 20260507050734 | 43 | 279 | 1.7 | 4.3 | 0.00 | 0.93 | 0.00 | 98 | 1012.2 |
| 20260507050247 | 43 | 326 | 1.7 | 4.3 | 0.00 | 0.93 | 0.00 | 98 | 1012.3 |
| 20260507045734 | 43 | 337 | 1.7 | 4.3 | 0.00 | 0.93 | 0.00 | 97 | 1012.2 |
| 20260507045455 | 43 | 2 | 2.6 | 5.2 | 0.00 | 0.93 | 0.00 | 98 | 1012.2 |
| 20260507044721 | 43 | 308 | 2.6 | 5.2 | 0.00 | 0.93 | 0.00 | 99 | 1012.1 |
| 20260507044218 | 43 | 5 | 2.6 | 5.2 | 0.00 | 0.93 | 0.00 | 99 | 1012.0 |
| 20260507043708 | 43 | 330 | 2.6 | 5.2 | 0.00 | 0.93 | 0.00 | 99 | 1012.0 |
| 20260507043209 | 43 | 172 | 2.6 | 4.3 | 0.00 | 0.93 | 0.00 | 99 | 1011.9 |
| 20260507042709 | 43 | 13 | 1.7 | 4.3 | 0.00 | 0.93 | 0.00 | 99 | 1011.9 |
| 20260507042202 | 43 | 294 | 1.7 | 3.5 | 0.00 | 0.93 | 0.00 | 99 | 1012.0 |
| 20260507041703 | 43 | 287 | 1.7 | 5.2 | 0.00 | 0.93 | 0.00 | 99 | 1012.0 |
| 20260507041203 | 43 | 294 | 1.7 | 5.2 | 0.00 | 0.93 | 0.00 | 99 | 1011.8 |
| 20260507040703 | 43 | 349 | 1.7 | 5.2 | 0.00 | 0.93 | 0.00 | 99 | 1011.9 |
| 20260507040202 | 43 | 347 | 1.7 | 3.5 | 0.00 | 0.93 | 0.00 | 99 | 1011.8 |
| 20260507035702 | 43 | 340 | 1.7 | 3.5 | 0.00 | 0.94 | 0.94 | 99 | 1011.7 |
| 20260507035203 | 43 | 322 | 1.7 | 3.5 | 0.00 | 0.95 | 0.94 | 99 | 1011.6 |
| 20260507034703 | 44 | 289 | 1.7 | 2.6 | 0.00 | 0.96 | 0.94 | 99 | 1011.6 |
| 20260507034201 | 44 | 296 | 1.7 | 3.5 | 0.00 | 0.96 | 0.94 | 99 | 1011.6 |
| 20260507033702 | 44 | 319 | 2.6 | 4.3 | 0.00 | 0.96 | 0.94 | 99 | 1011.5 |
| 20260507033201 | 44 | 261 | 1.7 | 4.3 | 0.00 | 0.99 | 0.94 | 99 | 1011.4 |
| 20260507032703 | 44 | 284 | 0.9 | 1.7 | 0.00 | 0.99 | 0.94 | 99 | 1011.5 |
| 20260507032202 | 44 | 250 | 0.0 | 1.7 | 0.01 | 0.99 | 0.94 | 99 | 1011.5 |
| 20260507031702 | 44 | 37 | 0.9 | 3.5 | 0.01 | 1.00 | 0.94 | 99 | 1011.5 |
| 20260507031151 | 44 | 0 | 1.7 | 7.8 | 0.01 | 1.03 | 0.94 | 99 | 1011.5 |
| 20260507030646 | 44 | 329 | 2.6 | 7.8 | 0.01 | 1.07 | 0.94 | 99 | 1011.4 |
| 20260507030146 | 44 | 316 | 3.5 | 7.0 | 0.01 | 1.09 | 0.94 | 99 | 1011.5 |
| 20260507025918 | 45 | 18 | 3.5 | 7.8 | 0.01 | 1.11 | 0.94 | 99 | 1011.4 |
| 20260507025147 | 45 | 322 | 4.3 | 9.6 | 0.01 | 1.12 | 0.94 | 99 | 1011.4 |
| 20260507024919 | 45 | 14 | 4.3 | 10.4 | 0.01 | 1.13 | 0.94 | 99 | 1011.3 |
| 20260507024147 | 45 | 354 | 3.5 | 10.4 | 0.01 | 1.15 | 0.94 | 99 | 1011.3 |
| 20260507023646 | 46 | 344 | 3.5 | 7.8 | 0.01 | 1.16 | 0.94 | 99 | 1011.3 |
| 20260507023146 | 46 | 344 | 3.5 | 7.8 | 0.01 | 1.16 | 0.94 | 99 | 1011.2 |
| 20260507022647 | 46 | 290 | 3.5 | 7.8 | 0.02 | 1.18 | 0.93 | 99 | 1011.3 |
| 20260507022141 | 46 | 354 | 1.7 | 3.5 | 0.04 | 1.19 | 0.93 | 99 | 1011.4 |
| 20260507021641 | 46 | 327 | 0.9 | 1.7 | 0.04 | 1.20 | 0.93 | 99 | 1011.4 |
| 20260507021408 | 46 | 317 | 0.0 | 1.7 | 0.05 | 1.20 | 0.93 | 99 | 1011.3 |
| 20260507020641 | 46 | 0 | 0.9 | 1.7 | 0.05 | 1.21 | 0.93 | 99 | 1011.3 |
| 20260507020135 | 46 | 23 | 0.9 | 1.7 | 0.05 | 1.21 | 0.93 | 99 | 1011.3 |
| 20260507015621 | 46 | 0 | 0.0 | 1.7 | 0.05 | 1.24 | 0.93 | 99 | 1011.4 |
| 20260507015105 | 46 | 0 | 0.9 | 1.7 | 0.05 | 1.29 | 0.93 | 99 | 1011.2 |
| 20260507014835 | 46 | 7 | 0.9 | 1.7 | 0.05 | 1.34 | 0.93 | 99 | 1011.1 |
| 20260507014105 | 46 | 98 | 0.9 | 1.7 | 0.05 | 1.37 | 0.93 | 99 | 1011.1 |
| 20260507013618 | 46 | 171 | 0.9 | 1.7 | 0.05 | 1.41 | 0.93 | 99 | 1011.3 |
| 20260507013556 | 47 | 254 | 0.9 | 1.7 | 0.04 | 1.43 | 0.93 | 99 | 1011.3 |
| 20260507012828 | 47 | 169 | 0.9 | 1.7 | 0.03 | 1.43 | 0.91 | 99 | 1011.4 |
| 20260507012118 | 47 | 326 | 0.9 | 1.7 | 0.00 | 1.40 | 0.89 | 100 | 1011.4 |
| 20260507011605 | 47 | 168 | 0.9 | 1.7 | 0.00 | 1.42 | 0.89 | 99 | 1011.3 |
| 20260507011324 | 47 | 346 | 0.9 | 1.7 | 0.00 | 1.44 | 0.88 | 99 | 1011.2 |
| 20260507010603 | 47 | 139 | 0.0 | 1.7 | 0.00 | 1.47 | 0.88 | 99 | 1011.1 |
| 20260507010104 | 47 | 160 | 0.9 | 1.7 | 0.00 | 1.48 | 0.88 | 99 | 1011.0 |
| 20260507005551 | 47 | 94 | 0.9 | 1.7 | 0.00 | 1.51 | 0.88 | 99 | 1010.9 |
| 20260507005053 | 47 | 158 | 0.9 | 1.7 | 0.00 | 1.53 | 0.88 | 99 | 1010.8 |
| 20260507004554 | 47 | 185 | 0.9 | 1.7 | 0.00 | 1.53 | 0.88 | 99 | 1010.7 |
| 20260507004053 | 47 | 226 | 0.9 | 1.7 | 0.00 | 1.53 | 0.88 | 99 | 1010.8 |
| 20260507003544 | 47 | 0 | 0.0 | 0.9 | 0.00 | 1.54 | 0.88 | 98 | 1010.6 |
| 20260507003044 | 47 | 0 | 0.0 | 0.9 | 0.00 | 1.55 | 0.88 | 98 | 1010.5 |
| 20260507002544 | 47 | 0 | 0.0 | 0.9 | 0.00 | 1.56 | 0.88 | 97 | 1010.5 |
| 20260507002044 | 47 | 236 | 0.0 | 1.7 | 0.00 | 1.56 | 0.88 | 96 | 1010.5 |
| 20260507001544 | 47 | 170 | 0.9 | 1.7 | 0.00 | 1.57 | 0.88 | 96 | 1010.4 |
| 20260507001043 | 47 | 236 | 0.0 | 1.7 | 0.00 | 1.57 | 0.88 | 96 | 1010.5 |
| 20260507000543 | 47 | 0 | 0.0 | 0.9 | 0.00 | 1.61 | 0.88 | 95 | 1010.4 |
| 20260507000057 | 47 | 0 | 0.0 | 0.9 | 0.00 | 1.63 | 0.88 | 95 | 1010.4 |
| 20260506235814 | 47 | 0 | 0.0 | 0.9 | 0.00 | 1.67 | 0.88 | 95 | 1010.3 |
| 20260506235037 | 47 | 0 | 0.0 | 0.9 | 0.00 | 1.69 | 0.88 | 96 | 1010.3 |
| 20260506234805 | 47 | 0 | 0.0 | 0.9 | 0.00 | 1.70 | 0.88 | 96 | 1010.3 |
| 20260506234037 | 47 | 0 | 0.0 | 0.9 | 0.00 | 1.70 | 0.88 | 95 | 1010.2 |
| 20260506233538 | 47 | 0 | 0.0 | 0.9 | 0.00 | 1.70 | 0.88 | 95 | 1010.2 |
| 20260506233304 | 47 | 0 | 0.0 | 1.7 | 0.00 | 1.70 | 0.88 | 95 | 1010.2 |
| 20260506232551 | 47 | 0 | 0.0 | 1.7 | 0.00 | 1.70 | 0.88 | 95 | 1010.2 |
| 20260506232038 | 47 | 0 | 0.0 | 1.7 | 0.00 | 1.70 | 0.88 | 94 | 1010.3 |
| 20260506231538 | 47 | 0 | 0.0 | 1.7 | 0.00 | 1.70 | 0.88 | 94 | 1010.2 |
| 20260506231024 | 47 | 338 | 0.9 | 1.7 | 0.00 | 1.70 | 0.88 | 95 | 1010.3 |
| 20260506230507 | 47 | 335 | 0.9 | 1.7 | 0.00 | 1.70 | 0.88 | 94 | 1010.2 |
| 20260506230009 | 47 | 21 | 0.9 | 1.7 | 0.00 | 1.70 | 0.88 | 93 | 1010.0 |
| 20260506225507 | 47 | 343 | 0.9 | 1.7 | 0.00 | 1.70 | 0.88 | 93 | 1009.9 |
| 20260506225008 | 47 | 356 | 0.0 | 1.7 | 0.00 | 1.70 | 0.88 | 93 | 1009.7 |
| 20260506224508 | 47 | 327 | 0.0 | 1.7 | 0.00 | 1.70 | 0.88 | 93 | 1009.8 |
| 20260506224007 | 47 | 0 | 0.9 | 1.7 | 0.00 | 1.70 | 0.88 | 92 | 1009.6 |
| 20260506223507 | 47 | 80 | 0.9 | 1.7 | 0.00 | 1.70 | 0.88 | 93 | 1009.5 |
| 20260506223008 | 47 | 34 | 1.7 | 1.7 | 0.00 | 1.70 | 0.88 | 93 | 1009.6 |
| 20260506222731 | 47 | 40 | 0.9 | 1.7 | 0.00 | 1.70 | 0.88 | 92 | 1009.7 |
| 20260506222228 | 47 | 96 | 0.0 | 1.7 | 0.00 | 1.70 | 0.88 | 92 | 1009.9 |
| 20260506221508 | 47 | 0 | 0.9 | 1.7 | 0.00 | 1.70 | 0.88 | 92 | 1009.9 |
| 20260506220955 | 47 | 286 | 0.9 | 1.7 | 0.00 | 1.70 | 0.88 | 92 | 1009.9 |
| 20260506220456 | 47 | 17 | 0.9 | 1.7 | 0.00 | 1.70 | 0.88 | 93 | 1010.0 |
| 20260506215949 | 47 | 319 | 0.9 | 1.7 | 0.00 | 1.70 | 0.88 | 93 | 1010.0 |
| 20260506215447 | 47 | 347 | 1.7 | 2.6 | 0.00 | 1.70 | 0.88 | 93 | 1010.0 |
| 20260506214946 | 47 | 317 | 1.7 | 2.6 | 0.00 | 1.70 | 0.88 | 94 | 1010.0 |
| 20260506214447 | 47 | 1 | 0.9 | 2.6 | 0.00 | 1.70 | 0.88 | 94 | 1009.9 |
| 20260506213946 | 47 | 333 | 0.9 | 1.7 | 0.00 | 1.70 | 0.88 | 94 | 1009.9 |
| 20260506213446 | 47 | 142 | 1.7 | 2.6 | 0.00 | 1.70 | 0.88 | 93 | 1009.7 |
| 20260506212946 | 47 | 15 | 1.7 | 2.6 | 0.00 | 1.70 | 0.88 | 93 | 1009.8 |
| 20260506212447 | 47 | 26 | 0.9 | 2.6 | 0.00 | 1.70 | 0.88 | 92 | 1009.8 |
| 20260506211947 | 47 | 338 | 1.7 | 3.5 | 0.00 | 1.70 | 0.88 | 93 | 1009.7 |
| 20260506211713 | 46 | 332 | 2.6 | 4.3 | 0.00 | 1.70 | 0.88 | 94 | 1009.6 |
| 20260506210940 | 46 | 17 | 1.7 | 4.3 | 0.00 | 1.70 | 0.88 | 93 | 1009.7 |
| 20260506210702 | 47 | 352 | 1.7 | 4.3 | 0.00 | 1.70 | 0.88 | 93 | 1009.7 |
| 20260506210211 | 46 | 0 | 2.6 | 7.0 | 0.00 | 1.70 | 0.88 | 95 | 1009.8 |
| 20260506205428 | 46 | 18 | 2.6 | 7.0 | 0.00 | 1.70 | 0.88 | 94 | 1009.7 |
| 20260506204925 | 46 | 353 | 1.7 | 4.3 | 0.00 | 1.70 | 0.88 | 96 | 1009.8 |
| 20260506204423 | 46 | 26 | 2.6 | 5.2 | 0.00 | 1.70 | 0.88 | 95 | 1009.7 |
| 20260506203923 | 46 | 341 | 2.6 | 5.2 | 0.00 | 1.70 | 0.88 | 96 | 1009.8 |
| 20260506203422 | 46 | 358 | 2.6 | 6.1 | 0.00 | 1.70 | 0.88 | 95 | 1009.8 |
| 20260506202922 | 46 | 327 | 2.6 | 6.1 | 0.00 | 1.70 | 0.88 | 94 | 1009.7 |
| 20260506202423 | 46 | 337 | 3.5 | 7.0 | 0.00 | 1.70 | 0.88 | 95 | 1009.7 |
| 20260506201924 | 46 | 13 | 3.5 | 7.0 | 0.00 | 1.70 | 0.88 | 95 | 1009.7 |
| 20260506201423 | 46 | 322 | 1.7 | 5.2 | 0.00 | 1.70 | 0.88 | 97 | 1009.5 |
| 20260506200922 | 46 | 318 | 2.6 | 6.1 | 0.00 | 1.70 | 0.88 | 97 | 1009.4 |
| 20260506200423 | 46 | 37 | 3.5 | 7.0 | 0.00 | 1.70 | 0.88 | 96 | 1009.3 |
| 20260506195918 | 45 | 67 | 3.5 | 7.0 | 0.00 | 1.70 | 0.88 | 97 | 1009.3 |
| 20260506195417 | 45 | 40 | 3.5 | 7.8 | 0.00 | 1.71 | 0.88 | 98 | 1009.3 |
| 20260506194919 | 45 | 358 | 4.3 | 9.6 | 0.00 | 1.71 | 0.88 | 99 | 1009.2 |
| 20260506194417 | 45 | 29 | 4.3 | 9.6 | 0.00 | 1.71 | 0.88 | 100 | 1009.2 |
| 20260506193917 | 45 | 10 | 5.2 | 9.6 | 0.00 | 1.71 | 0.88 | 100 | 1009.3 |
| 20260506193417 | 45 | 0 | 5.2 | 9.6 | 0.00 | 1.71 | 0.88 | 100 | 1009.3 |
| 20260506192917 | 44 | 35 | 5.2 | 7.8 | 0.00 | 1.71 | 0.88 | 100 | 1009.3 |
| 20260506192417 | 44 | 353 | 4.3 | 7.8 | 0.00 | 1.71 | 0.88 | 100 | 1009.4 |
| 20260506192141 | 45 | 1 | 4.3 | 9.6 | 0.00 | 1.71 | 0.88 | 100 | 1009.4 |
| 20260506191417 | 44 | 343 | 5.2 | 9.6 | 0.00 | 1.71 | 0.88 | 100 | 1009.4 |
| 20260506190917 | 44 | 29 | 5.2 | 8.7 | 0.00 | 1.71 | 0.88 | 100 | 1009.3 |
| 20260506190417 | 45 | 5 | 5.2 | 9.6 | 0.00 | 1.71 | 0.88 | 100 | 1009.4 |
| 20260506190135 | 45 | 14 | 4.3 | 9.6 | 0.00 | 1.71 | 0.88 | 100 | 1009.2 |
| 20260506185413 | 45 | 23 | 4.3 | 9.6 | 0.00 | 1.71 | 0.88 | 100 | 1009.1 |
| 20260506184912 | 45 | 19 | 4.3 | 8.7 | 0.00 | 1.71 | 0.88 | 100 | 1008.9 |
| 20260506184410 | 45 | 5 | 4.3 | 8.7 | 0.00 | 1.71 | 0.88 | 100 | 1008.9 |
| 20260506184348 | 45 | 38 | 3.5 | 9.6 | 0.00 | 1.71 | 0.88 | 100 | 1009.0 |
| 20260506183411 | 45 | 4 | 3.5 | 9.6 | 0.00 | 1.71 | 0.88 | 100 | 1009.0 |
| 20260506183137 | 45 | 47 | 3.5 | 8.7 | 0.00 | 1.71 | 0.88 | 100 | 1009.1 |
| 20260506182411 | 45 | 347 | 4.3 | 8.7 | 0.00 | 1.71 | 0.88 | 100 | 1009.0 |
| 20260506181913 | 45 | 53 | 3.5 | 7.8 | 0.00 | 1.71 | 0.88 | 100 | 1008.9 |
| 20260506181409 | 45 | 352 | 3.5 | 8.7 | 0.00 | 1.71 | 0.88 | 100 | 1008.9 |
| 20260506180908 | 45 | 338 | 4.3 | 10.4 | 0.00 | 1.71 | 0.88 | 100 | 1009.0 |
| 20260506180407 | 45 | 21 | 5.2 | 10.4 | 0.00 | 1.71 | 0.88 | 100 | 1008.9 |
| 20260506175908 | 45 | 19 | 5.2 | 9.6 | 0.00 | 1.71 | 0.88 | 100 | 1008.7 |
| 20260506175408 | 45 | 19 | 4.3 | 9.6 | 0.00 | 1.71 | 0.88 | 100 | 1008.6 |
| 20260506174908 | 45 | 18 | 4.3 | 9.6 | 0.00 | 1.71 | 0.88 | 100 | 1008.5 |
| 20260506174408 | 45 | 10 | 5.2 | 10.4 | 0.00 | 1.72 | 0.88 | 100 | 1008.3 |
| 20260506173908 | 45 | 12 | 5.2 | 10.4 | 0.00 | 1.72 | 0.88 | 100 | 1008.3 |
| 20260506173409 | 45 | 38 | 5.2 | 11.3 | 0.00 | 1.72 | 0.88 | 100 | 1008.2 |
| 20260506172909 | 45 | 351 | 4.3 | 11.3 | 0.00 | 1.74 | 0.88 | 100 | 1008.2 |
| 20260506172408 | 45 | 329 | 4.3 | 9.6 | 0.00 | 1.81 | 0.88 | 100 | 1008.2 |
| 20260506171907 | 45 | 289 | 4.3 | 8.7 | 0.00 | 1.82 | 0.88 | 100 | 1008.2 |
| 20260506171402 | 46 | 1 | 3.5 | 7.8 | 0.00 | 1.82 | 0.88 | 100 | 1008.1 |
| 20260506171133 | 46 | 5 | 4.3 | 7.8 | 0.00 | 1.82 | 0.88 | 100 | 1008.1 |
| 20260506170402 | 46 | 25 | 4.3 | 7.8 | 0.00 | 1.82 | 0.88 | 100 | 1008.1 |
| 20260506165901 | 46 | 11 | 3.5 | 7.8 | 0.00 | 1.82 | 0.88 | 100 | 1008.1 |
| 20260506165401 | 46 | 26 | 4.3 | 8.7 | 0.00 | 1.82 | 0.88 | 100 | 1008.0 |
| 20260506164902 | 46 | 69 | 5.2 | 8.7 | 0.00 | 1.82 | 0.88 | 100 | 1007.9 |
| 20260506164632 | 46 | 342 | 4.3 | 7.8 | 0.00 | 1.82 | 0.88 | 100 | 1007.9 |
| 20260506163901 | 46 | 357 | 4.3 | 7.8 | 0.00 | 1.82 | 0.88 | 100 | 1007.9 |
| 20260506163401 | 45 | 89 | 4.3 | 7.8 | 0.00 | 1.82 | 0.88 | 100 | 1007.8 |
| 20260506162902 | 45 | 357 | 4.3 | 7.8 | 0.00 | 1.82 | 0.88 | 100 | 1007.8 |
| 20260506162402 | 45 | 346 | 3.5 | 7.8 | 0.00 | 1.82 | 0.88 | 100 | 1007.9 |
| 20260506161902 | 45 | 15 | 3.5 | 7.0 | 0.00 | 1.82 | 0.88 | 100 | 1008.0 |
| 20260506161613 | 45 | 350 | 3.5 | 6.1 | 0.00 | 1.82 | 0.88 | 100 | 1007.9 |
| 20260506160909 | 45 | 14 | 3.5 | 6.1 | 0.00 | 1.82 | 0.88 | 100 | 1008.0 |
| 20260506160357 | 45 | 40 | 3.5 | 7.0 | 0.00 | 1.82 | 0.88 | 100 | 1008.0 |
| 20260506155857 | 45 | 6 | 3.5 | 8.7 | 0.00 | 1.82 | 0.88 | 100 | 1008.1 |
| 20260506155357 | 45 | 6 | 3.5 | 8.7 | 0.00 | 1.82 | 0.88 | 100 | 1008.1 |
| 20260506154858 | 45 | 58 | 3.5 | 6.1 | 0.00 | 1.82 | 0.88 | 100 | 1008.1 |
| 20260506154354 | 45 | 349 | 3.5 | 7.8 | 0.00 | 1.82 | 0.88 | 100 | 1008.3 |
| 20260506153854 | 45 | 0 | 4.3 | 8.7 | 0.00 | 1.82 | 0.88 | 99 | 1008.2 |
| 20260506153354 | 45 | 27 | 4.3 | 8.7 | 0.00 | 1.82 | 0.88 | 99 | 1008.2 |
| 20260506152853 | 45 | 14 | 3.5 | 7.0 | 0.00 | 1.82 | 0.88 | 99 | 1008.2 |
| 20260506152353 | 45 | 32 | 3.5 | 6.1 | 0.00 | 1.82 | 0.88 | 99 | 1008.3 |
| 20260506151854 | 45 | 26 | 3.5 | 7.0 | 0.00 | 1.82 | 0.88 | 99 | 1008.2 |
| 20260506151611 | 45 | 14 | 3.5 | 7.8 | 0.00 | 1.82 | 0.88 | 99 | 1008.2 |
| 20260506150850 | 45 | 10 | 4.3 | 7.8 | 0.00 | 1.82 | 0.88 | 99 | 1008.0 |
| 20260506150348 | 45 | 12 | 3.5 | 7.8 | 0.00 | 1.82 | 0.88 | 99 | 1008.0 |
| 20260506145847 | 45 | 42 | 3.5 | 6.1 | 0.00 | 1.82 | 0.88 | 99 | 1008.0 |
| 20260506145347 | 45 | 1 | 3.5 | 6.1 | 0.00 | 1.82 | 0.88 | 99 | 1007.9 |
| 20260506144845 | 45 | 19 | 3.5 | 6.1 | 0.00 | 1.82 | 0.88 | 99 | 1007.7 |
| 20260506144345 | 44 | 27 | 3.5 | 6.1 | 0.00 | 1.82 | 0.88 | 99 | 1007.7 |
| 20260506143845 | 45 | 2 | 2.6 | 5.2 | 0.00 | 1.82 | 0.88 | 99 | 1007.8 |
| 20260506143333 | 44 | 68 | 2.6 | 5.2 | 0.00 | 1.82 | 0.88 | 99 | 1007.8 |
| 20260506142833 | 44 | 353 | 3.5 | 6.1 | 0.00 | 1.82 | 0.88 | 100 | 1007.3 |
| 20260506142334 | 44 | 49 | 3.5 | 6.1 | 0.00 | 1.82 | 0.88 | 99 | 1007.6 |
| 20260506141834 | 44 | 34 | 2.6 | 6.1 | 0.00 | 1.82 | 0.88 | 100 | 1007.6 |
| 20260506141333 | 44 | 34 | 2.6 | 9.6 | 0.01 | 1.82 | 0.88 | 100 | 1007.6 |
| 20260506141057 | 44 | 20 | 3.5 | 9.6 | 0.02 | 1.82 | 0.88 | 100 | 1007.6 |
| 20260506140334 | 44 | 54 | 2.6 | 5.2 | 0.03 | 1.82 | 0.88 | 100 | 1007.6 |
| 20260506135831 | 44 | 65 | 1.7 | 5.2 | 0.04 | 1.82 | 0.88 | 100 | 1007.7 |
| 20260506135322 | 44 | 49 | 1.7 | 5.2 | 0.05 | 1.82 | 0.88 | 99 | 1007.7 |
| 20260506134822 | 44 | 0 | 2.6 | 7.0 | 0.05 | 1.82 | 0.88 | 99 | 1007.6 |
| 20260506134547 | 44 | 4 | 3.5 | 7.0 | 0.06 | 1.82 | 0.88 | 99 | 1007.7 |
| 20260506133816 | 44 | 70 | 3.5 | 6.1 | 0.08 | 1.82 | 0.88 | 99 | 1007.7 |
| 20260506133316 | 44 | 26 | 3.5 | 7.0 | 0.10 | 1.82 | 0.88 | 99 | 1007.7 |
| 20260506132816 | 44 | 94 | 3.5 | 7.0 | 0.12 | 1.82 | 0.88 | 99 | 1007.7 |
| 20260506132545 | 44 | 12 | 4.3 | 7.0 | 0.13 | 1.82 | 0.88 | 99 | 1007.8 |
| 20260506131830 | 44 | 52 | 4.3 | 7.8 | 0.15 | 1.82 | 0.88 | 99 | 1007.8 |
| 20260506131316 | 44 | 41 | 3.5 | 7.8 | 0.15 | 1.81 | 0.87 | 99 | 1007.8 |
| 20260506130816 | 44 | 21 | 3.5 | 6.1 | 0.16 | 1.81 | 0.87 | 99 | 1007.9 |
| 20260506130317 | 44 | 72 | 3.5 | 6.1 | 0.16 | 1.79 | 0.85 | 99 | 1007.9 |
| 20260506125815 | 44 | 16 | 3.5 | 6.1 | 0.17 | 1.78 | 0.84 | 99 | 1008.0 |
| 20260506125315 | 44 | 60 | 2.6 | 6.1 | 0.17 | 1.78 | 0.84 | 99 | 1007.9 |
| 20260506125040 | 44 | 34 | 3.5 | 7.0 | 0.17 | 1.77 | 0.83 | 99 | 1007.9 |
| 20260506124315 | 44 | 17 | 4.3 | 7.8 | 0.16 | 1.76 | 0.81 | 99 | 1008.0 |
| 20260506124042 | 44 | 61 | 3.5 | 7.8 | 0.15 | 1.74 | 0.80 | 99 | 1008.0 |
| 20260506123311 | 44 | 13 | 3.5 | 7.0 | 0.12 | 1.72 | 0.78 | 99 | 1008.0 |
| 20260506122811 | 44 | 28 | 4.3 | 7.0 | 0.10 | 1.70 | 0.76 | 99 | 1007.9 |
| 20260506122311 | 44 | 2 | 4.3 | 7.0 | 0.09 | 1.68 | 0.74 | 99 | 1008.0 |
| 20260506121811 | 44 | 27 | 4.3 | 7.8 | 0.08 | 1.67 | 0.73 | 99 | 1007.8 |
| 20260506121311 | 44 | 58 | 3.5 | 7.8 | 0.07 | 1.66 | 0.72 | 99 | 1007.7 |
| 20260506120811 | 44 | 53 | 2.6 | 7.8 | 0.06 | 1.65 | 0.70 | 99 | 1007.6 |
| 20260506120312 | 44 | 49 | 2.6 | 7.8 | 0.05 | 1.63 | 0.69 | 99 | 1007.7 |
| 20260506120028 | 44 | 59 | 3.5 | 8.7 | 0.04 | 1.61 | 0.67 | 99 | 1007.5 |
| 20260506115307 | 44 | 92 | 3.5 | 8.7 | 0.05 | 1.61 | 0.67 | 99 | 1007.5 |
| 20260506115024 | 44 | 56 | 4.3 | 7.8 | 0.07 | 1.60 | 0.66 | 99 | 1007.2 |
| 20260506114301 | 44 | 43 | 4.3 | 7.8 | 0.08 | 1.59 | 0.65 | 99 | 1007.5 |
| 20260506113800 | 44 | 77 | 5.2 | 7.8 | 0.11 | 1.59 | 0.65 | 99 | 1007.7 |
| 20260506113300 | 44 | 47 | 5.2 | 7.8 | 0.14 | 1.59 | 0.65 | 99 | 1007.7 |
| 20260506112800 | 44 | 38 | 5.2 | 7.8 | 0.16 | 1.59 | 0.65 | 99 | 1007.7 |
| 20260506112301 | 44 | 52 | 4.3 | 7.8 | 0.17 | 1.59 | 0.65 | 99 | 1007.9 |
| 20260506112015 | 44 | 51 | 4.3 | 7.8 | 0.19 | 1.59 | 0.65 | 99 | 1007.7 |
| 20260506111257 | 44 | 21 | 4.3 | 7.8 | 0.20 | 1.59 | 0.65 | 99 | 1007.8 |
| 20260506110757 | 44 | 69 | 3.5 | 7.0 | 0.22 | 1.59 | 0.65 | 99 | 1007.9 |
| 20260506110257 | 44 | 20 | 3.5 | 7.8 | 0.24 | 1.58 | 0.64 | 99 | 1007.9 |
| 20260506110024 | 44 | 116 | 4.3 | 7.8 | 0.24 | 1.57 | 0.63 | 99 | 1007.9 |
| 20260506105257 | 44 | 34 | 4.3 | 7.8 | 0.22 | 1.56 | 0.61 | 99 | 1008.0 |
| 20260506104758 | 44 | 40 | 4.3 | 8.7 | 0.20 | 1.53 | 0.59 | 99 | 1008.0 |
| 20260506104257 | 44 | 65 | 4.3 | 8.7 | 0.19 | 1.51 | 0.57 | 99 | 1007.8 |
| 20260506103755 | 44 | 34 | 4.3 | 8.7 | 0.16 | 1.48 | 0.54 | 99 | 1007.9 |
| 20260506103255 | 44 | 28 | 4.3 | 9.6 | 0.14 | 1.46 | 0.52 | 99 | 1007.9 |
| 20260506103018 | 44 | 356 | 4.3 | 9.6 | 0.13 | 1.43 | 0.50 | 99 | 1008.0 |
| 20260506102256 | 44 | 348 | 3.5 | 8.7 | 0.13 | 1.42 | 0.48 | 99 | 1007.8 |
| 20260506101756 | 44 | 41 | 2.6 | 8.7 | 0.13 | 1.40 | 0.46 | 99 | 1007.7 |
| 20260506101255 | 44 | 30 | 3.5 | 8.7 | 0.12 | 1.38 | 0.44 | 99 | 1007.7 |
| 20260506101027 | 44 | 37 | 4.3 | 8.7 | 0.10 | 1.36 | 0.42 | 99 | 1007.5 |
| 20260506100256 | 44 | 49 | 3.5 | 7.8 | 0.09 | 1.34 | 0.40 | 99 | 1007.2 |
| 20260506095755 | 45 | 40 | 3.5 | 7.0 | 0.09 | 1.33 | 0.39 | 99 | 1007.2 |
| 20260506095518 | 45 | 51 | 2.6 | 6.1 | 0.09 | 1.33 | 0.39 | 99 | 1007.3 |
| 20260506095023 | 45 | 41 | 2.6 | 6.1 | 0.10 | 1.33 | 0.39 | 99 | 1007.3 |
| 20260506094256 | 45 | 47 | 2.6 | 7.0 | 0.09 | 1.33 | 0.39 | 99 | 1007.3 |
| 20260506093755 | 45 | 92 | 2.6 | 7.0 | 0.10 | 1.32 | 0.38 | 99 | 1007.2 |
| 20260506093256 | 45 | 3 | 3.5 | 8.7 | 0.11 | 1.31 | 0.37 | 99 | 1007.1 |
| 20260506092756 | 45 | 91 | 3.5 | 8.7 | 0.10 | 1.30 | 0.36 | 99 | 1007.0 |
| 20260506092250 | 45 | 70 | 2.6 | 7.8 | 0.09 | 1.29 | 0.35 | 99 | 1007.1 |
| 20260506091751 | 45 | 97 | 2.6 | 6.1 | 0.09 | 1.28 | 0.33 | 99 | 1007.1 |
| 20260506091251 | 45 | 48 | 2.6 | 5.2 | 0.09 | 1.26 | 0.32 | 99 | 1007.5 |
| 20260506090751 | 45 | 91 | 2.6 | 7.0 | 0.10 | 1.26 | 0.32 | 99 | 1007.6 |
| 20260506090251 | 45 | 132 | 2.6 | 7.0 | 0.10 | 1.25 | 0.31 | 99 | 1007.6 |
| 20260506085751 | 46 | 130 | 1.7 | 5.2 | 0.10 | 1.24 | 0.30 | 99 | 1008.0 |
| 20260506085252 | 46 | 88 | 3.5 | 7.8 | 0.10 | 1.24 | 0.30 | 99 | 1008.1 |
| 20260506084743 | 46 | 83 | 4.3 | 7.8 | 0.11 | 1.23 | 0.29 | 99 | 1008.1 |
| 20260506084243 | 46 | 36 | 5.2 | 9.6 | 0.14 | 1.23 | 0.29 | 99 | 1008.3 |
| 20260506083744 | 46 | 46 | 4.3 | 9.6 | 0.14 | 1.22 | 0.28 | 99 | 1008.4 |
| 20260506083243 | 46 | 5 | 5.2 | 7.8 | 0.14 | 1.21 | 0.27 | 99 | 1008.4 |
| 20260506082743 | 46 | 39 | 5.2 | 7.8 | 0.15 | 1.20 | 0.26 | 99 | 1008.4 |
| 20260506082244 | 47 | 51 | 5.2 | 9.6 | 0.16 | 1.19 | 0.25 | 99 | 1008.3 |
| 20260506081739 | 47 | 45 | 5.2 | 9.6 | 0.16 | 1.19 | 0.24 | 99 | 1008.2 |
| 20260506081235 | 47 | 34 | 5.2 | 9.6 | 0.15 | 1.17 | 0.23 | 99 | 1008.1 |
| 20260506080735 | 47 | 18 | 4.3 | 8.7 | 0.13 | 1.16 | 0.22 | 99 | 1008.1 |
| 20260506080457 | 47 | 42 | 4.3 | 8.7 | 0.13 | 1.15 | 0.21 | 99 | 1007.8 |
| 20260506073223 | 48 | 38 | 4.3 | 7.0 | 0.06 | 1.09 | 0.13 | 99 | 1007.9 |
| 20260506072723 | 48 | 53 | 4.3 | 7.8 | 0.03 | 1.08 | 0.11 | 99 | 1007.9 |
| 20260506072234 | 48 | 32 | 4.3 | 7.8 | 0.01 | 1.06 | 0.08 | 99 | 1007.7 |
| 20260506072223 | 48 | 19 | 4.3 | 7.8 | 0.02 | 1.06 | 0.09 | 99 | 1007.9 |
| 20260506071222 | 48 | 33 | 3.5 | 7.8 | 0.02 | 1.06 | 0.08 | 99 | 1007.5 |
| 20260506070722 | 48 | 16 | 2.6 | 5.2 | 0.02 | 1.06 | 0.08 | 99 | 1007.5 |
| 20260506070208 | 48 | 36 | 2.6 | 4.3 | 0.01 | 1.05 | 0.08 | 99 | 1007.6 |
| 20260506062203 | 48 | 154 | 1.7 | 3.5 | 0.07 | 1.05 | 0.07 | 99 | 1008.1 |
| 20260506061704 | 48 | 82 | 1.7 | 3.5 | 0.07 | 1.04 | 0.07 | 99 | 1008.1 |
| 20260506061204 | 48 | 356 | 1.7 | 2.6 | 0.06 | 1.04 | 0.07 | 99 | 1008.5 |
| 20260506060705 | 48 | 336 | 1.7 | 2.6 | 0.06 | 1.04 | 0.07 | 99 | 1008.5 |
| 20260506060204 | 48 | 104 | 0.9 | 2.6 | 0.06 | 1.04 | 0.07 | 99 | 1008.2 |
| 20260506051151 | 48 | 351 | 0.9 | 2.6 | 0.00 | 0.98 | 0.00 | 99 | 1009.4 |